period_start,C,m1,H,J0,J1,J2,J3,J4,J5,JA,JB,JC,JD,JJ,JK,JN,#
2015-02-13 00:03:11,0.45,7.56,0.00,24.22,27.65,30.28,4.67,29.24,1003.98,2028.97,1479.72,1842.67,1952.28,349.54,341.56,31.85,0000 0000 0000 0000 000000
2015-02-13 00:08:13,0.45,7.57,0.00,24.20,27.64,30.26,4.69,29.27,1003.81,2028.97,1477.74,1841.24,1950.61,350.45,342.37,31.88,0000 0000 0000 0000 000000
2015-02-13 00:13:14,0.47,7.59,0.00,24.17,27.64,30.20,4.70,29.40,1003.47,2028.94,1475.77,1839.68,1948.90,349.81,341.50,31.91,0000 0000 0000 0000 000000
2015-02-13 00:18:15,0.43,7.60,0.00,24.22,27.64,30.19,4.64,29.29,1003.46,2028.96,1473.94,1838.25,1947.33,349.93,341.72,31.94,0000 0000 0000 0000 000000
2015-02-13 00:23:17,0.46,7.61,0.00,24.20,27.64,30.22,4.70,29.40,1003.46,2028.97,1472.17,1836.74,1945.68,350.14,341.50,31.97,0000 0000 0000 0000 000000
2015-02-13 00:28:18,0.42,7.63,0.00,24.17,27.65,30.20,4.68,29.50,1003.45,2028.98,1470.41,1835.36,1944.07,350.02,341.84,32.00,0000 0000 0000 0000 000000
2015-02-13 00:33:20,0.43,7.64,0.00,24.19,27.65,30.20,4.70,29.46,1003.84,2028.97,1468.68,1833.87,1942.51,349.87,341.89,32.03,0000 0000 0000 0000 000000
2015-02-13 00:38:21,0.43,7.65,0.00,24.17,27.65,30.21,4.73,29.53,1003.92,2028.93,1466.88,1832.44,1940.81,350.42,342.40,32.06,0000 0000 0000 0000 000000
2015-02-13 00:43:22,0.45,7.66,0.00,24.16,27.65,30.18,4.76,29.54,1003.92,2028.89,1464.96,1830.87,1939.18,350.38,342.25,32.09,0000 0000 0000 0000 000000
2015-02-13 00:48:24,0.45,7.68,0.00,24.17,27.65,30.21,4.69,29.63,1003.92,2028.91,1463.20,1829.47,1937.59,349.90,341.99,32.12,0000 0000 0000 0000 000000
2015-02-13 00:53:26,0.43,7.69,0.00,24.14,27.65,30.19,4.70,29.47,1004.13,2028.92,1461.36,1827.98,1935.99,349.71,341.86,32.15,0000 0000 0000 0000 000000
2015-02-13 00:58:27,0.43,7.70,0.00,24.12,27.66,30.18,4.65,29.48,1004.41,2028.84,1459.56,1826.55,1934.42,349.45,341.75,32.17,0000 0000 0000 0000 000000
2015-02-13 01:03:28,0.42,7.71,0.00,24.10,27.67,30.22,4.73,29.43,1004.58,2028.73,1457.77,1825.11,1932.81,349.79,342.28,32.20,0000 0000 0000 0000 000000
2015-02-13 01:08:30,0.40,7.73,0.00,24.08,27.67,30.18,4.70,29.20,1004.90,2028.59,1455.96,1823.67,1931.21,349.66,342.04,32.23,0000 0000 0000 0000 000000
2015-02-13 01:13:31,0.36,7.74,0.00,24.09,27.68,30.22,4.73,29.19,1005.08,2028.37,1454.17,1822.18,1929.63,349.84,342.23,32.26,0000 0000 0000 0000 000000
2015-02-13 01:18:32,0.44,7.75,0.00,24.12,27.70,30.22,4.73,29.08,1005.10,2028.23,1452.35,1820.68,1927.98,350.27,342.83,32.29,0000 0000 0000 0000 000000
2015-02-13 01:23:34,0.43,7.76,0.00,24.12,27.70,30.24,4.77,29.27,1004.91,2028.16,1450.51,1819.29,1926.46,350.71,343.06,32.32,0000 0000 0000 0000 000000
2015-02-13 01:28:35,0.45,7.78,0.00,24.10,27.71,30.27,4.75,29.45,1004.90,2028.09,1448.73,1817.78,1924.79,350.07,342.45,32.35,0000 0000 0000 0000 000000
2015-02-13 01:33:36,0.44,7.79,0.00,24.10,27.72,30.23,4.78,29.52,1004.80,2028.02,1446.84,1816.33,1923.16,350.28,342.65,32.38,0000 0000 0000 0000 000000
2015-02-13 01:38:38,0.48,7.80,0.00,24.10,27.73,30.33,4.67,29.70,1004.79,2028.00,1445.01,1814.80,1921.51,349.66,341.93,32.41,0000 0000 0000 0000 000000
2015-02-13 01:43:39,0.40,7.82,0.00,24.11,27.74,30.35,4.70,29.54,1004.90,2028.00,1443.24,1813.40,1919.93,349.80,342.36,32.44,0000 0000 0000 0000 000000
2015-02-13 01:48:41,0.47,7.83,0.00,24.06,27.75,30.36,4.69,29.45,1004.90,2028.00,1441.39,1811.87,1918.39,350.20,342.71,32.47,0000 0000 0000 0000 000000
2015-02-13 01:53:42,0.48,7.84,0.00,24.12,27.75,30.31,4.73,29.32,1004.92,2028.00,1439.54,1810.46,1916.74,349.65,342.11,32.50,0000 0000 0000 0000 000000
2015-02-13 01:58:43,0.41,7.86,0.00,24.12,27.76,30.31,4.77,29.42,1005.32,2028.00,1437.75,1808.98,1915.17,350.34,342.76,32.53,0000 0000 0000 0000 000000
2015-02-13 02:03:45,0.43,7.87,0.00,24.10,27.77,30.36,4.75,29.42,1005.41,2028.00,1436.14,1807.62,1913.63,349.83,342.31,32.56,0000 0000 0000 0000 000000
2015-02-13 02:08:46,0.39,7.88,0.00,24.12,27.77,30.36,4.72,29.46,1005.75,2028.00,1434.58,1806.40,1912.27,349.99,342.60,32.58,0000 0000 0000 0000 000000
2015-02-13 02:13:47,0.32,7.89,0.00,24.09,27.78,30.37,4.71,29.52,1005.87,2028.00,1433.33,1805.18,1910.92,349.58,342.44,32.61,0000 0000 0000 0000 000000
2015-02-13 02:18:48,0.43,7.90,0.00,24.07,27.79,30.39,4.76,29.37,1005.88,2027.99,1431.73,1803.89,1909.55,350.15,342.90,32.64,0000 0000 0000 0000 000000
2015-02-13 02:23:50,0.35,7.91,0.00,24.06,27.80,30.45,4.72,29.30,1006.00,2027.98,1430.23,1802.71,1908.23,349.94,342.75,32.67,0000 0000 0000 0000 000000
2015-02-13 02:28:51,0.40,7.92,0.00,24.09,27.80,30.48,4.76,29.27,1006.16,2027.98,1428.69,1801.46,1906.84,349.82,342.67,32.70,0000 0000 0000 0000 000000
2015-02-13 02:33:53,0.34,7.93,0.00,24.12,27.81,30.44,4.75,29.27,1005.93,2027.96,1427.32,1800.33,1905.57,350.24,342.85,32.73,0000 0000 0000 0000 000000
2015-02-13 02:38:54,0.35,7.95,0.00,24.10,27.82,30.51,4.66,29.44,1005.87,2027.96,1425.86,1799.16,1904.35,349.74,342.46,32.76,0000 0000 0000 0000 000000
2015-02-13 02:43:55,0.34,7.96,0.00,24.15,27.82,30.51,4.71,29.27,1005.87,2027.90,1424.42,1797.97,1903.02,349.61,342.40,32.79,0000 0000 0000 0000 000000
2015-02-13 02:48:56,0.32,7.97,0.00,24.15,27.82,30.43,4.71,29.18,1005.84,2027.78,1423.11,1796.84,1901.77,349.97,342.57,32.82,0000 0000 0000 0000 000000
2015-02-13 02:53:58,0.38,7.97,0.00,24.14,27.82,30.47,4.77,29.41,1005.50,2027.58,1421.59,1795.71,1900.56,350.20,342.87,32.85,0000 0000 0000 0000 000000
2015-02-13 02:58:59,0.26,7.98,0.00,24.16,27.82,30.42,4.70,29.27,1005.39,2027.48,1420.25,1794.55,1899.27,349.68,342.26,32.88,0000 0000 0000 0000 000000
2015-02-13 03:04:01,0.36,7.99,0.00,24.17,27.83,30.41,4.74,29.47,1005.39,2027.23,1418.74,1793.38,1897.94,350.46,343.00,32.91,0000 0000 0000 0000 000000
2015-02-13 03:09:02,0.32,8.00,0.00,24.16,27.84,30.47,4.73,29.39,1005.38,2027.27,1417.47,1792.33,1896.74,350.57,342.67,32.94,0000 0000 0000 0000 000000
2015-02-13 03:14:04,0.33,8.01,0.00,24.14,27.84,30.50,4.70,29.36,1005.31,2027.11,1416.00,1791.30,1895.58,349.65,342.24,32.97,0000 0000 0000 0000 000000
2015-02-13 03:19:04,0.35,8.02,0.00,24.18,27.85,30.45,4.71,29.26,1005.38,2027.15,1414.63,1790.17,1894.37,349.95,342.26,33.00,0000 0000 0000 0000 000000
2015-02-13 03:24:06,0.31,8.03,0.00,24.17,27.85,30.44,4.74,29.25,1005.39,2027.09,1413.29,1789.04,1893.10,350.00,342.52,33.02,0000 0000 0000 0000 000000
2015-02-13 03:29:07,0.35,8.04,0.00,24.17,27.85,30.44,4.74,29.43,1005.40,2027.16,1411.96,1787.99,1891.93,350.08,342.49,33.05,0000 0000 0000 0000 000000
2015-02-13 03:34:08,0.38,8.05,0.00,24.17,27.85,30.41,4.76,29.26,1005.41,2027.08,1410.59,1786.84,1890.64,349.90,342.57,33.08,0000 0000 0000 0000 000000
2015-02-13 03:39:09,0.36,8.06,0.00,24.18,27.85,30.44,4.75,29.43,1005.68,2027.08,1409.13,1785.68,1889.42,350.42,342.99,33.11,0000 0000 0000 0000 000000
2015-02-13 03:44:11,0.33,8.08,0.00,24.19,27.85,30.46,4.67,29.17,1005.93,2027.10,1407.78,1784.62,1888.20,349.76,342.35,33.14,0000 0000 0000 0000 000000
2015-02-13 03:49:12,0.35,8.09,0.00,24.19,27.85,30.47,4.80,29.12,1006.35,2027.12,1406.52,1783.54,1887.03,349.89,342.72,33.17,0000 0000 0000 0000 000000
2015-02-13 03:54:13,0.33,8.09,0.00,24.21,27.85,30.52,4.72,29.02,1006.38,2027.10,1405.27,1782.42,1885.79,349.47,342.28,33.20,0000 0000 0000 0000 000000
2015-02-13 03:59:15,0.35,8.11,0.00,24.19,27.84,30.56,4.71,29.13,1006.48,2027.08,1403.86,1781.37,1884.55,349.64,342.48,33.23,0000 0000 0000 0000 000000
2015-02-13 04:04:16,0.34,8.12,0.00,24.20,27.83,30.58,4.73,29.00,1006.85,2027.05,1402.55,1780.26,1883.41,350.03,342.98,33.26,0000 0000 0000 0000 000000
2015-02-13 04:09:17,0.32,8.13,0.00,24.24,27.82,30.60,4.71,28.81,1007.08,2027.13,1401.23,1779.20,1882.27,349.67,342.57,33.29,0000 0000 0000 0000 000000
2015-02-13 04:14:19,0.36,8.14,0.00,24.25,27.82,30.64,4.75,28.90,1007.34,2027.28,1399.89,1778.18,1881.11,350.20,343.06,33.32,0000 0000 0000 0000 000000
2015-02-13 04:19:20,0.34,8.15,0.00,24.21,27.81,30.66,4.79,28.87,1007.35,2027.22,1398.47,1777.12,1879.94,350.47,343.59,33.35,0000 0000 0000 0000 000000
2015-02-13 04:24:22,0.36,8.16,0.00,24.20,27.80,30.58,4.72,28.67,1007.75,2027.32,1397.14,1776.03,1878.74,349.41,342.57,33.38,0000 0000 0000 0000 000000
2015-02-13 04:29:23,0.43,8.17,0.00,24.25,27.80,30.58,4.72,28.77,1007.84,2027.40,1395.80,1774.96,1877.55,350.07,343.36,33.41,0000 0000 0000 0000 000000
2015-02-13 04:34:24,0.35,8.18,0.00,24.27,27.78,30.62,4.75,28.74,1007.85,2027.51,1394.47,1773.87,1876.41,349.94,343.11,33.43,0000 0000 0000 0000 000000
2015-02-13 04:39:25,0.30,8.19,0.00,24.31,27.77,30.65,4.78,28.77,1007.86,2027.42,1393.08,1772.77,1875.23,350.09,343.39,33.46,0000 0000 0000 0000 000000
2015-02-13 04:44:27,0.40,8.20,0.00,24.31,27.76,30.67,4.67,28.87,1007.86,2027.65,1391.87,1771.76,1874.10,349.21,342.51,33.49,0000 0000 0000 0000 000000
2015-02-13 04:49:28,0.38,8.21,0.00,24.31,27.75,30.67,4.76,28.97,1007.83,2027.86,1390.60,1770.82,1872.99,349.95,342.91,33.52,0000 0000 0000 0000 000000
2015-02-13 04:54:29,0.31,8.22,0.00,24.32,27.73,30.67,4.75,28.93,1007.83,2027.94,1389.34,1769.84,1871.93,349.78,342.95,33.55,0000 0000 0000 0000 000000
2015-02-13 04:59:31,0.31,8.23,0.00,24.32,27.72,30.63,4.68,29.10,1007.82,2027.97,1388.16,1768.87,1870.85,349.65,342.91,33.58,0000 0000 0000 0000 000000
2015-02-13 05:04:32,0.34,8.24,0.00,24.31,27.70,30.62,4.71,29.05,1007.81,2027.98,1386.81,1767.88,1869.79,349.73,342.88,33.61,0000 0000 0000 0000 000000
2015-02-13 05:09:33,0.36,8.25,0.00,24.31,27.69,30.56,4.72,29.08,1007.82,2027.98,1385.55,1766.87,1868.68,350.01,343.12,33.64,0000 0000 0000 0000 000000
2015-02-13 05:14:34,0.32,8.26,0.00,24.31,27.67,30.52,4.70,29.01,1007.83,2027.99,1384.30,1765.86,1867.60,349.55,342.72,33.67,0000 0000 0000 0000 000000
2015-02-13 05:19:35,0.32,8.27,0.00,24.28,27.65,30.49,4.67,28.95,1007.83,2027.99,1382.97,1764.86,1866.54,349.44,342.65,33.70,0000 0000 0000 0000 000000
2015-02-13 05:24:37,0.39,8.28,0.00,24.29,27.64,30.52,4.74,28.91,1007.83,2027.99,1381.64,1763.79,1865.35,350.39,343.58,33.73,0000 0000 0000 0000 000000
2015-02-13 05:29:38,0.34,8.29,0.00,24.27,27.62,30.53,4.77,29.16,1007.83,2028.00,1380.32,1762.73,1864.21,350.07,343.33,33.76,0000 0000 0000 0000 000000
2015-02-13 05:34:39,0.35,8.30,0.00,24.26,27.60,30.52,4.69,28.93,1007.83,2028.00,1378.90,1761.69,1863.04,350.43,343.79,33.79,0000 0000 0000 0000 000000
2015-02-13 05:39:40,0.38,8.31,0.00,24.27,27.59,30.49,4.69,29.02,1007.83,2028.00,1377.55,1760.62,1861.86,349.69,343.03,33.82,0000 0000 0000 0000 000000
2015-02-13 05:44:42,0.32,8.32,0.00,24.27,27.57,30.48,4.77,29.31,1007.84,2028.02,1376.18,1759.64,1860.72,350.39,343.60,33.85,0000 0000 0000 0000 000000
2015-02-13 05:49:43,0.39,8.33,0.00,24.27,27.55,30.46,4.75,29.17,1007.83,2028.01,1374.83,1758.45,1859.53,350.11,343.14,33.87,0000 0000 0000 0000 000000
2015-02-13 05:54:44,0.37,8.34,0.00,24.27,27.55,30.47,4.75,29.19,1007.95,2028.08,1373.53,1757.39,1858.42,350.38,343.45,33.90,0000 0000 0000 0000 000000
2015-02-13 05:59:46,0.32,8.36,0.00,24.22,27.52,30.44,4.72,29.07,1008.27,2028.14,1372.20,1756.36,1857.30,349.58,343.00,33.93,0000 0000 0000 0000 000000
2015-02-13 06:04:47,0.43,8.37,0.00,24.22,27.52,30.37,4.70,29.06,1008.32,2028.36,1370.85,1755.34,1856.15,349.32,342.73,33.96,0000 0000 0000 0000 000000
2015-02-13 06:09:49,0.35,8.38,0.00,24.23,27.50,30.29,4.78,29.04,1008.32,2028.51,1369.57,1754.27,1855.08,350.05,343.33,33.99,0000 0000 0000 0000 000000
2015-02-13 06:14:50,0.37,8.39,0.00,24.24,27.50,30.31,4.70,29.19,1008.32,2028.69,1368.29,1753.23,1854.01,349.78,343.19,34.02,0000 0000 0000 0000 000000
2015-02-13 06:19:51,0.36,8.40,0.00,24.23,27.49,30.24,4.75,29.23,1008.32,2028.79,1366.92,1752.19,1852.84,350.39,343.68,34.05,0000 0000 0000 0000 000000
2015-02-13 06:24:52,0.39,8.41,0.00,24.24,27.47,30.28,4.73,29.13,1008.32,2028.78,1365.58,1751.12,1851.69,350.40,343.90,34.08,0000 0000 0000 0000 000000
2015-02-13 06:29:54,0.32,8.42,0.00,24.23,27.47,30.20,4.73,29.42,1008.32,2028.78,1364.33,1750.05,1850.55,350.32,343.60,34.11,0000 0000 0000 0000 000000
2015-02-13 06:34:55,0.35,8.43,0.00,24.19,27.46,30.18,4.69,29.33,1008.28,2028.83,1362.97,1749.02,1849.43,349.50,342.96,34.14,0000 0000 0000 0000 000000
2015-02-13 06:39:56,0.37,8.44,0.00,24.17,27.45,30.03,4.73,29.53,1008.17,2028.92,1361.67,1748.02,1848.35,349.40,342.83,34.17,0000 0000 0000 0000 000000
2015-02-13 06:44:58,0.34,8.45,0.00,24.17,27.45,29.97,4.71,29.31,1008.18,2028.93,1360.45,1746.95,1847.18,350.04,343.43,34.20,0000 0000 0000 0000 000000
2015-02-13 06:49:59,0.30,8.46,0.00,24.17,27.45,29.98,4.70,29.54,1008.17,2028.94,1359.17,1745.95,1846.05,349.56,343.20,34.23,0000 0000 0000 0000 000000
2015-02-13 06:55:01,0.40,8.47,0.00,24.16,27.45,30.01,4.78,29.46,1007.95,2028.96,1357.81,1744.87,1844.88,350.50,343.85,34.26,0000 0000 0000 0000 000000
2015-02-13 07:00:02,0.36,8.48,0.00,24.12,27.45,29.98,4.69,29.38,1007.93,2028.90,1356.49,1743.81,1843.70,349.52,343.11,34.28,0000 0000 0000 0000 000000
2015-02-13 07:05:03,0.34,8.49,0.00,24.13,27.45,29.94,4.79,29.38,1008.20,2028.93,1355.30,1742.76,1842.58,350.29,343.76,34.31,0000 0000 0000 0000 000000
2015-02-13 07:10:04,0.33,8.50,0.00,24.16,27.47,30.01,4.65,29.31,1008.31,2028.84,1353.94,1741.71,1841.43,349.67,343.18,34.34,0000 0000 0000 0000 000000
2015-02-13 07:15:05,0.37,8.51,0.00,24.08,27.47,29.98,4.71,29.39,1008.32,2028.85,1352.67,1740.65,1840.29,350.07,343.67,34.37,0000 0000 0000 0000 000000
2015-02-13 07:20:06,0.33,8.52,0.00,24.08,27.47,30.00,4.71,29.42,1008.33,2028.84,1351.46,1739.64,1839.19,349.61,343.11,34.40,0000 0000 0000 0000 000000
2015-02-13 07:25:08,0.29,8.53,0.00,24.10,27.48,30.03,4.68,29.43,1008.36,2028.57,1350.07,1738.51,1837.95,349.32,343.04,34.43,0000 0000 0000 0000 000000
2015-02-13 07:30:09,0.33,8.54,0.00,24.10,27.50,30.02,4.67,29.31,1008.40,2028.39,1348.74,1737.43,1836.79,349.91,343.41,34.46,0000 0000 0000 0000 000000
2015-02-13 07:35:10,0.32,8.55,0.00,24.07,27.50,30.03,4.72,29.48,1008.59,2028.23,1347.51,1736.38,1835.62,350.07,343.62,34.49,0000 0000 0000 0000 000000
2015-02-13 07:40:11,0.33,8.56,0.00,24.10,27.52,30.05,4.67,29.34,1008.78,2028.13,1346.14,1735.34,1834.43,349.59,343.40,34.52,0000 0000 0000 0000 000000
2015-02-13 07:45:13,0.33,8.57,0.00,24.09,27.52,30.07,4.65,29.37,1008.80,2028.04,1344.80,1734.21,1833.24,349.28,343.28,34.55,0000 0000 0000 0000 000000
2015-02-13 07:50:14,0.36,8.58,0.00,24.09,27.54,30.04,4.65,29.32,1008.80,2028.03,1343.58,1733.13,1832.11,349.76,343.39,34.58,0000 0000 0000 0000 000000
2015-02-13 07:55:16,0.32,8.59,0.00,24.10,27.55,30.08,4.64,29.16,1008.80,2028.04,1342.53,1732.11,1830.95,349.72,343.59,34.61,0000 0000 0000 0000 000000
2015-02-13 08:00:17,0.34,8.61,0.00,24.10,27.56,30.09,4.70,29.33,1008.82,2028.01,1341.18,1731.01,1829.75,349.53,343.55,34.64,0000 0000 0000 0000 000000
2015-02-13 08:05:19,0.37,8.61,0.00,24.12,27.57,30.13,4.72,29.43,1008.89,2028.01,1339.88,1729.96,1828.65,350.26,343.74,34.67,0000 0000 0000 0000 000000
2015-02-13 08:10:20,0.37,8.62,0.00,24.10,27.57,30.17,4.71,29.50,1009.10,2028.01,1338.61,1728.94,1827.52,350.10,343.82,34.69,0000 0000 0000 0000 000000
2015-02-13 08:15:21,0.33,8.64,0.00,24.01,27.60,30.18,4.73,29.41,1009.18,2028.00,1337.36,1727.91,1826.42,350.04,344.10,34.72,0000 0000 0000 0000 000000
2015-02-13 08:20:23,0.33,8.65,0.00,24.06,27.60,30.16,4.77,29.28,1009.21,2028.00,1336.06,1726.94,1825.22,350.14,344.00,34.75,0000 0000 0000 0000 000000
2015-02-13 08:25:24,0.38,8.66,0.00,24.08,27.62,30.15,4.71,29.42,1009.15,2028.00,1334.74,1725.93,1823.99,349.87,343.59,34.78,0000 0000 0000 0000 000000
2015-02-13 08:30:25,0.38,8.67,0.00,24.07,27.62,30.20,4.73,29.23,1009.15,2028.00,1333.46,1724.87,1822.79,350.14,344.03,34.81,0000 0000 0000 0000 000000
2015-02-13 08:35:26,0.35,8.68,0.00,24.00,27.63,30.21,4.72,29.37,1008.91,2027.99,1332.17,1723.77,1821.67,349.78,343.81,34.84,0000 0000 0000 0000 000000
2015-02-13 08:40:27,0.41,8.69,0.00,23.98,27.65,30.21,4.80,29.37,1008.81,2027.96,1330.80,1722.65,1820.48,350.55,344.35,34.87,0000 0000 0000 0000 000000
2015-02-13 08:45:28,0.34,8.70,0.00,24.03,27.66,30.20,4.74,29.39,1008.80,2027.96,1329.57,1721.62,1819.30,349.94,343.73,34.90,0000 0000 0000 0000 000000
2015-02-13 08:50:30,0.33,8.71,0.00,24.02,27.67,30.24,4.71,29.54,1008.74,2027.96,1328.34,1720.52,1818.12,349.64,343.62,34.93,0000 0000 0000 0000 000000
2015-02-13 08:55:31,0.32,8.72,0.00,23.99,27.69,30.29,4.77,29.52,1008.78,2027.88,1327.04,1719.54,1816.94,350.04,344.07,34.96,0000 0000 0000 0000 000000
2015-02-13 09:00:33,0.35,4.07,0.00,23.96,27.71,30.27,4.10,24.82,1008.80,2030.74,2539.31,2628.79,2835.93,308.67,303.49,0.01,0000 0000 0000 0000 000002
2015-02-13 09:05:34,0.31,0.00,0.00,24.02,27.72,30.27,4.64,27.47,1008.82,2032.80,3461.46,3321.68,3612.76,349.59,343.36,0.02,0000 0000 0000 0000 000000
2015-02-13 09:10:35,0.32,0.01,0.00,24.00,27.75,30.31,4.77,27.39,1009.10,2032.56,3456.40,3318.39,3608.74,350.41,344.37,0.05,0000 0000 0000 0000 000000
2015-02-13 09:15:36,0.32,0.02,0.00,23.94,27.75,30.37,4.77,27.47,1009.31,2032.36,3451.75,3315.21,3605.03,349.77,343.66,0.08,0000 0000 0000 0000 000000
2015-02-13 09:20:37,0.32,0.03,0.00,23.91,27.77,30.41,4.71,27.24,1009.66,2032.09,3447.08,3311.99,3601.25,350.12,344.36,0.11,0000 0000 0000 0000 000000
2015-02-13 09:25:39,0.34,0.04,0.00,23.99,27.78,30.39,4.75,27.18,1009.78,2032.06,3442.45,3308.78,3597.61,350.30,344.49,0.14,0000 0000 0000 0000 000000
2015-02-13 09:30:40,0.35,0.04,0.00,24.01,27.80,30.43,4.74,27.22,1010.08,2032.03,3437.82,3305.59,3594.01,350.17,344.46,0.17,0000 0000 0000 0000 000000
2015-02-13 09:35:41,0.35,0.06,0.00,24.06,27.80,30.43,4.75,27.25,1010.27,2032.00,3433.22,3302.31,3590.32,350.39,344.66,0.20,0000 0000 0000 0000 000000
2015-02-13 09:40:42,0.35,0.07,0.00,24.07,27.82,30.44,4.74,27.35,1010.27,2032.00,3428.50,3299.02,3586.64,349.95,344.26,0.22,0000 0000 0000 0000 000000
2015-02-13 09:45:44,0.32,0.08,0.00,24.10,27.82,30.46,4.74,27.01,1010.26,2032.00,3423.97,3295.94,3583.25,350.37,344.60,0.25,0000 0000 0000 0000 000000
2015-02-13 09:50:45,0.34,0.09,0.00,24.13,27.82,30.51,4.76,27.24,1010.23,2032.00,3419.38,3292.71,3579.78,349.93,344.24,0.28,0000 0000 0000 0000 000000
2015-02-13 09:55:46,0.36,0.10,0.00,24.15,27.83,30.60,4.69,27.27,1010.03,2032.00,3414.73,3289.44,3576.15,349.58,343.72,0.31,0000 0000 0000 0000 000000
2015-02-13 10:00:47,0.35,0.11,0.00,24.16,27.83,30.65,4.72,27.28,1009.81,2032.00,3410.02,3286.18,3572.53,350.41,344.53,0.34,0000 0000 0000 0000 000000
2015-02-13 10:05:49,0.35,0.12,0.00,24.13,27.82,30.66,4.73,27.46,1009.92,2032.00,3405.23,3282.88,3568.87,349.89,343.98,0.37,0000 0000 0000 0000 000000
2015-02-13 10:10:51,0.36,0.13,0.00,24.15,27.82,30.67,4.71,27.36,1010.20,2032.00,3400.51,3279.58,3565.17,350.45,344.77,0.40,0000 0000 0000 0000 000000
2015-02-13 10:15:52,0.36,0.14,0.00,24.12,27.82,30.70,4.73,27.44,1010.27,2032.00,3395.72,3276.23,3561.44,350.00,344.19,0.43,0000 0000 0000 0000 000000
2015-02-13 10:20:53,0.35,0.15,0.00,24.13,27.81,30.70,4.76,27.52,1010.26,2032.00,3390.92,3272.83,3557.62,349.91,344.11,0.46,0000 0000 0000 0000 000000
2015-02-13 10:25:54,0.36,0.16,0.00,24.14,27.80,30.73,4.75,27.26,1010.27,2032.00,3386.14,3269.44,3553.84,350.24,344.51,0.49,0000 0000 0000 0000 000000
2015-02-13 10:30:56,0.38,0.17,0.00,24.16,27.80,30.70,4.71,27.38,1010.27,2032.00,3381.29,3265.98,3550.02,350.09,344.21,0.52,0000 0000 0000 0000 000000
2015-02-13 10:35:57,0.36,0.18,0.00,24.11,27.78,30.67,4.73,27.37,1010.01,2032.01,3376.52,3262.71,3546.18,350.12,344.39,0.55,0000 0000 0000 0000 000000
2015-02-13 10:40:58,0.39,0.19,0.00,24.13,27.77,30.63,4.74,27.67,1009.56,2032.01,3371.56,3259.21,3542.28,350.18,344.17,0.58,0000 0000 0000 0000 000000
2015-02-13 10:45:59,0.39,0.20,0.00,24.15,27.76,30.58,4.71,27.47,1009.28,2032.02,3366.51,3255.49,3538.11,349.74,343.69,0.61,0000 0000 0000 0000 000000
2015-02-13 10:51:00,0.38,0.21,0.00,24.15,27.75,30.61,4.71,27.61,1009.10,2032.03,3361.63,3251.98,3534.21,349.64,343.40,0.63,0000 0000 0000 0000 000000
2015-02-13 10:56:02,0.38,0.23,0.00,24.12,27.75,30.52,4.74,27.48,1009.14,2032.07,3356.65,3248.51,3530.38,349.96,343.81,0.66,0000 0000 0000 0000 000000
2015-02-13 11:01:03,0.37,0.24,0.00,24.12,27.73,30.44,4.72,27.56,1009.29,2032.06,3351.74,3245.07,3526.59,349.79,343.68,0.69,0000 0000 0000 0000 000000
2015-02-13 11:06:05,0.39,0.25,0.00,24.16,27.72,30.43,4.73,27.32,1009.30,2032.06,3346.73,3241.50,3522.59,350.02,343.60,0.72,0000 0000 0000 0000 000000
2015-02-13 11:11:06,0.39,0.26,0.00,24.13,27.72,30.46,4.69,27.75,1009.28,2032.08,3341.70,3237.96,3518.78,349.87,343.87,0.75,0000 0000 0000 0000 000000
2015-02-13 11:16:08,0.48,0.28,0.00,24.14,27.71,30.50,4.72,27.70,1009.31,2032.14,3335.83,3233.72,3513.79,350.25,344.13,0.78,0000 0000 0000 0000 000000
2015-02-13 11:21:08,0.41,0.29,0.00,24.09,27.70,30.45,4.81,27.55,1009.64,2032.18,3330.74,3230.03,3509.70,350.74,344.74,0.81,0000 0000 0000 0000 000000
2015-02-13 11:26:10,0.39,0.30,0.00,24.11,27.70,30.36,4.70,27.50,1009.71,2032.25,3325.81,3226.48,3505.79,349.74,343.78,0.84,0000 0000 0000 0000 000000
2015-02-13 11:31:11,0.39,0.31,0.00,24.13,27.70,30.44,4.74,27.32,1009.66,2032.20,3320.75,3222.90,3501.78,350.25,344.27,0.87,0000 0000 0000 0000 000000
2015-02-13 11:36:13,0.43,0.32,0.00,24.12,27.69,30.48,4.74,27.35,1009.40,2032.38,3315.68,3219.32,3497.84,349.66,343.67,0.90,0000 0000 0000 0000 000000
2015-02-13 11:41:14,0.38,0.34,0.00,24.14,27.67,30.38,4.72,27.63,1009.29,2032.32,3310.57,3215.74,3493.91,350.02,343.85,0.93,0000 0000 0000 0000 000000
2015-02-13 11:46:15,0.41,0.35,0.00,24.14,27.67,30.42,4.75,27.69,1009.29,2032.41,3305.56,3212.17,3489.94,350.08,343.71,0.96,0000 0000 0000 0000 000000
2015-02-13 11:51:16,0.41,0.36,0.00,24.16,27.67,30.35,4.73,27.58,1009.24,2032.55,3300.43,3208.62,3485.96,349.81,343.74,0.99,0000 0000 0000 0000 000000
2015-02-13 11:56:17,0.44,0.37,0.00,24.15,27.67,30.38,4.74,27.11,1009.29,2032.76,3295.42,3205.05,3482.03,349.80,343.52,1.02,0000 0000 0000 0000 000000
2015-02-13 12:01:19,0.39,0.38,0.00,24.19,27.67,30.45,4.70,27.18,1009.27,2032.80,3290.35,3201.46,3478.08,349.66,343.47,1.05,0000 0000 0000 0000 000000
2015-02-13 12:06:20,0.41,0.40,0.00,24.21,27.65,30.43,4.75,27.29,1009.28,2032.92,3285.24,3198.00,3474.17,349.96,343.76,1.07,0000 0000 0000 0000 000000
2015-02-13 12:11:21,0.40,0.41,0.00,24.20,27.65,30.50,4.68,27.43,1009.29,2032.97,3280.20,3194.46,3470.20,349.99,343.80,1.10,0000 0000 0000 0000 000000
2015-02-13 12:16:23,0.40,0.42,0.00,24.22,27.65,30.47,4.73,27.43,1009.30,2032.98,3275.13,3190.84,3466.18,350.07,343.75,1.13,0000 0000 0000 0000 000000
2015-02-13 12:21:24,0.39,0.43,0.00,24.25,27.63,30.44,4.70,27.30,1009.29,2032.98,3270.07,3187.24,3462.23,349.83,343.56,1.16,0000 0000 0000 0000 000000
2015-02-13 12:26:25,0.40,0.44,0.00,24.22,27.62,30.44,4.74,27.25,1009.32,2032.98,3265.10,3183.78,3458.41,350.12,343.87,1.19,0000 0000 0000 0000 000000
2015-02-13 12:31:27,0.40,0.45,0.00,24.22,27.62,30.47,4.75,27.21,1009.32,2032.99,3260.16,3180.13,3454.50,350.25,343.99,1.22,0000 0000 0000 0000 000000
2015-02-13 12:36:28,0.39,0.47,0.00,24.22,27.60,30.50,4.73,27.32,1009.32,2032.99,3255.22,3176.64,3450.61,349.95,343.66,1.25,0000 0000 0000 0000 000000
2015-02-13 12:41:29,0.39,0.48,0.00,24.23,27.60,30.48,4.73,27.25,1009.30,2032.99,3250.17,3173.17,3446.73,350.02,343.77,1.28,0000 0000 0000 0000 000000
2015-02-13 12:46:30,0.39,0.49,0.00,24.25,27.58,30.47,4.69,27.36,1009.34,2032.99,3245.26,3169.69,3442.95,349.91,343.66,1.31,0000 0000 0000 0000 000000
2015-02-13 12:51:31,0.38,0.50,0.00,24.25,27.57,30.46,4.70,27.19,1009.37,2032.99,3240.42,3166.20,3439.17,350.00,343.71,1.34,0000 0000 0000 0000 000000
2015-02-13 12:56:32,0.39,0.51,0.00,24.26,27.57,30.44,4.74,27.30,1009.33,2032.99,3235.59,3162.77,3435.35,350.21,343.96,1.37,0000 0000 0000 0000 000000
2015-02-13 13:01:34,0.39,0.52,0.00,24.26,27.55,30.45,4.67,27.23,1009.29,2033.00,3230.66,3159.33,3431.56,349.87,343.59,1.40,0000 0000 0000 0000 000000